EW0641 Weather Reports


Display with metric or nautical units.
time (UTC)temp
F
wind
direction
speed
MPH
gust
MPH
rain 1hr
in
rain 24hr
in
rain mn
in
humidity
%
barometer
mb
20260507184527 57 9 0.0 0.0 0.00 0.00 0.00 44 1011.4
20260507183036 57 360 0.0 0.0 0.00 0.00 0.00 46 1011.4
20260507181526 56 306 0.0 0.0 0.00 0.00 0.00 45 1011.5
20260507180038 56 295 0.0 0.0 0.00 0.00 0.00 45 1011.4
20260507174531 56 315 0.0 0.0 0.00 0.00 0.00 47 1011.5
20260507173023 56 337 0.0 0.0 0.00 0.00 0.00 46 1011.6
20260507171521 56 308 0.0 0.0 0.00 0.00 0.00 46 1011.8
20260507170022 56 303 0.0 0.0 0.00 0.00 0.00 44 1011.8
20260507164520 55 347 0.0 0.0 0.00 0.00 0.00 46 1011.9
20260507163019 56 292 0.0 0.0 0.00 0.00 0.00 47 1012.0
20260507161533 56 355 0.0 0.0 0.00 0.00 0.00 47 1012.1
20260507160024 56 271 0.0 0.0 0.00 0.00 0.00 45 1012.2
20260507154519 56 254 0.0 0.0 0.00 0.00 0.00 44 1012.1
20260507153016 55 300 0.0 0.0 0.00 0.00 0.00 47 1012.1
20260507151525 55 338 0.0 0.0 0.00 0.00 0.00 47 1012.2
20260507150015 55 304 0.0 0.0 0.00 0.00 0.00 48 1012.3
20260507144511 55 327 0.0 0.0 0.00 0.00 0.00 48 1012.2
20260507143010 54 9 0.0 0.0 0.00 0.00 0.00 50 1012.4
20260507141509 54 288 0.0 0.0 0.00 0.00 0.00 50 1012.4
20260507140013 53 13 0.0 0.0 0.00 0.00 0.00 51 1012.8
20260507134521 52 5 0.0 0.0 0.00 0.00 0.00 52 1012.8
20260507133009 53 302 0.0 0.0 0.00 0.00 0.00 50 1012.7
20260507131508 53 151 0.0 0.0 0.00 0.00 0.00 54 1012.9
20260507130103 52 348 0.0 0.0 0.00 0.00 0.00 57 1012.8
20260507124558 50 347 0.0 0.0 0.00 0.00 0.00 59 1012.8
20260507123105 50 347 0.0 0.0 0.00 0.00 0.00 60 1012.8
20260507121553 49 344 0.0 0.0 0.00 0.00 0.00 62 1012.8
20260507120052 48 344 0.0 0.0 0.00 0.00 0.00 64 1012.8
20260507114551 47 344 0.0 0.0 0.00 0.00 0.00 66 1012.7
20260507113050 46 344 0.0 0.0 0.00 0.00 0.00 67 1012.6
20260507111549 45 344 0.0 0.0 0.00 0.00 0.00 68 1012.6
20260507104549 45 344 0.0 0.0 0.00 0.00 0.00 68 1012.2
20260507103054 45 344 0.0 0.0 0.00 0.00 0.00 67 1012.1
20260507101549 45 344 0.0 0.0 0.00 0.00 0.00 67 1012.0
20260507100045 45 344 0.0 0.0 0.00 0.00 0.00 65 1011.9
20260507094544 46 344 0.0 0.0 0.00 0.00 0.00 63 1011.9
20260507093045 47 344 0.0 0.0 0.00 0.00 0.00 62 1012.0
20260507091555 47 344 0.0 0.0 0.00 0.00 0.00 61 1012.0
20260507090045 48 344 0.0 0.0 0.00 0.00 0.00 60 1012.1
20260507084542 48 331 0.0 0.0 0.00 0.00 0.00 59 1012.3
20260507083040 48 331 0.0 0.0 0.00 0.00 0.00 58 1012.2
20260507081639 48 355 0.0 0.0 0.00 0.00 0.00 58 1012.2
20260507080038 48 13 0.0 0.0 0.00 0.00 0.00 57 1012.2
20260507074544 48 360 0.0 0.0 0.00 0.00 0.00 58 1012.1
20260507073037 49 360 0.0 0.0 0.00 0.00 0.00 57 1012.1
20260507071537 49 11 0.0 0.0 0.00 0.00 0.00 58 1012.1
20260507070041 49 355 0.0 0.0 0.00 0.00 0.00 59 1012.1
20260507064536 46 355 0.0 0.0 0.00 0.00 0.00 70 1012.2
20260507063034 46 211 0.0 0.0 0.00 0.00 0.00 82 1012.1
20260507061527 47 211 0.0 0.0 0.00 0.00 0.00 82 1012.2
20260507060025 47 211 0.0 0.0 0.00 0.00 0.00 81 1012.3
20260507054523 48 211 0.0 0.0 0.00 0.00 0.00 81 1012.3
20260507053022 48 211 0.0 0.0 0.00 0.00 0.00 80 1012.4
20260507051531 48 211 0.0 0.0 0.00 0.00 0.00 80 1012.5
20260507050018 48 211 0.0 0.0 0.00 0.00 0.00 80 1012.5
20260507044517 49 211 0.0 0.0 0.00 0.00 0.00 79 1012.6
20260507043015 49 211 0.0 0.0 0.00 0.00 0.00 79 1012.7
20260507041513 49 210 0.0 0.0 0.00 0.00 0.00 78 1012.8
20260507040011 49 210 0.0 0.0 0.00 0.00 0.00 78 1012.8
20260507034511 49 232 0.0 0.0 0.00 0.00 0.00 77 1012.9
20260507033010 49 227 0.0 0.0 0.00 0.00 0.00 78 1013.0
20260507031512 49 223 0.0 0.0 0.00 0.00 0.00 79 1013.1
20260507030015 49 225 0.0 0.0 0.00 0.00 0.00 79 1013.1
20260507024511 49 220 0.0 0.0 0.00 0.01 0.00 78 1013.0
20260507023008 50 219 0.0 0.0 0.00 0.01 0.00 76 1013.1
20260507021508 50 228 0.0 0.0 0.00 0.01 0.00 74 1013.0
20260507020007 51 243 0.0 0.0 0.00 0.01 0.00 71 1012.9
20260507014507 51 244 0.0 0.0 0.00 0.01 0.00 67 1012.7
20260507013005 51 355 0.0 0.0 0.00 0.01 0.00 61 1012.7
20260507011502 51 355 0.0 0.0 0.00 0.01 0.00 61 1012.5
20260507010003 52 355 0.0 0.0 0.00 0.01 0.00 60 1012.5
20260507004502 52 355 0.0 0.0 0.00 0.01 0.00 57 1012.4
20260507003001 53 355 0.0 0.0 0.00 0.01 0.00 53 1012.4
20260507001503 53 355 0.0 0.0 0.00 0.01 0.00 54 1012.4
20260507000002 53 355 0.0 0.0 0.00 0.01 0.00 53 1012.4
20260506234621 53 355 0.0 0.0 0.00 0.01 0.00 54 1012.2
20260506233105 54 351 0.0 0.0 0.00 0.01 0.00 51 1012.2
20260506231559 54 5 0.0 0.0 0.00 0.01 0.00 49 1012.0
20260506230059 55 5 0.0 0.0 0.00 0.01 0.00 47 1012.1
20260506224558 55 5 0.0 0.0 0.00 0.01 0.00 47 1012.3
20260506223101 55 40 0.0 0.0 0.00 0.01 0.00 48 1012.2
20260506221600 55 355 0.0 0.0 0.00 0.01 0.00 50 1012.4
20260506220057 55 355 0.0 0.0 0.00 0.01 0.00 49 1012.4
20260506214604 55 10 0.0 0.0 0.00 0.01 0.00 49 1012.3
20260506213057 54 355 0.0 0.0 0.00 0.01 0.00 48 1012.3
20260506211559 54 321 0.0 0.0 0.00 0.01 0.00 47 1012.3
20260506210055 55 346 0.0 0.0 0.00 0.01 0.00 46 1012.1
20260506204604 55 15 0.0 0.0 0.00 0.01 0.00 47 1012.0
20260506203052 56 360 0.0 0.0 0.00 0.01 0.00 49 1012.0
20260506201551 54 360 0.0 0.0 0.00 0.01 0.00 51 1012.1
20260506200051 54 14 0.0 0.0 0.00 0.01 0.00 51 1012.1
20260506194550 54 12 0.0 0.0 0.00 0.01 0.00 52 1012.2
20260506193048 54 351 0.0 0.0 0.00 0.01 0.00 50 1012.3
20260506191546 54 13 0.0 0.0 0.00 0.01 0.00 54 1012.2
20260506190045 54 5 0.0 0.0 0.00 0.01 0.00 55 1012.2